sat.trackr.live / text

‹ back to catalog

ONEWEB-0599

NORAD 55155 · 2023-004R

PAYLOAD ACTIVE UNKNOWN

§ Identity

Operator
Country
UK
Launch date
2023-01-10
Launch site
AFETR
Launch vehicle
Mass (kg)
RCS (m²)

Purposes: comms

External: N2YO · Heavens-Above · Gunter

§ Orbital elements

Epoch: 2026-05-25T02:12:43.767072Z

Period
109.29 min
Inclination
87.9151°
Eccentricity
0.0001675
Mean motion
13.17651564 rev/d
Perigee alt
1,192.4 km
Apogee alt
1,195.0 km
Semi-major
7,571.8 km
B*
5.3927e-5
RAAN
10.4574°
Arg perigee
77.5608°
Mean anomaly
282.5711°
Rev number
16,444

§ Raw data

ONEWEB-05991 55155U 23004R   26145.09217323  .00000034  00000+0  53927-4 0  99912 55155  87.9151  10.4574 0001675  77.5608 282.5711 13.17651564164441

JSON: /api/v1/satellites/55155 · /tle

For live sub-satellite position, see the globe view (requires WebGL).

§ Visibility from observer

Set your observer location to see the next 7 days of passes ≥ 10°. The values pass through the URL so the page stays shareable.

No JS? Fill the form by hand. The geolocation button needs JavaScript.